Marion, VA

2:56 PM EDT on April 24, 2018 (GMT -0400)
Mountain Empire

Weather History for KMKJ - December, 2012

Change the Weather History Date:

Saturday, December 29, 2012

  Actual Average (KBLF) Record (KBLF)
Temperature  
Mean Temperature 36 °F -  
Max Temperature 42 °F 42 °F 67 °F (2015)
Min Temperature 30 °F 25 °F 3 °F (1961)
Degree Days  
Heating Degree Days 29    
Moisture  
Dew Point 32 °F    
Average Humidity 85    
Maximum Humidity 100    
Minimum Humidity 71    
Precipitation  
Precipitation 0.09 in - - ()
Sea Level Pressure  
Sea Level Pressure 29.78 in    
Wind  
Wind Speed 14 mph (West)    
Max Wind Speed 31 mph    
Max Gust Speed 44 mph    
Visibility 8 miles    
Events Rain , Snow    
Averages and records for this station are not official NWS values.
T = Trace of Precipitation, MM = Missing Value Source: NWS Daily Summary

Daily Weather History Graph

Daily Weather History Graph

Search for Another Location

Airport or City:

Astronomy

Dec. 29, 2012 Rise Set
Actual Time 7:37 AM EST 5:17 PM EST
Civil Twilight 7:08 AM EST 5:46 PM EST
Nautical Twilight 6:36 AM EST 6:19 PM EST
Astronomical Twilight 6:04 AM EST 6:50 PM EST
Moon 6:46 PM EST (12/29) 8:12 AM EST (12/29)
Length of Visible Light 10h 37m
Length of Day
9h 39m
Full, 98% of the Moon is Illuminated
Dec 29
Full
Jan 4
Last Quarter
Jan 11
New
Jan 18
First Quarter
Jan 26
Full

Hourly Weather History & Observations

Time (EST) Temp. Windchill Dew Point Humidity Pressure Visibility Wind Dir Wind Speed Gust Speed Precip Events Conditions
12:15 AM 35.1 °F 28.6 °F 33.3 °F 93% 29.84 in 10.0 mi ENE 8.1 mph - N/A   Light Drizzle
12:35 AM 34.7 °F 27.5 °F 33.8 °F 97% 29.84 in 7.0 mi ENE 9.2 mph - N/A   Light Drizzle
12:55 AM 34.7 °F 27.5 °F 34.2 °F 98% 29.82 in 10.0 mi ENE 9.2 mph - N/A   Overcast
1:15 AM 36.1 °F 28.7 °F 34.3 °F 93% 29.81 in 7.0 mi East 10.4 mph - N/A Rain Rain
1:35 AM 35.1 °F 27.9 °F 35.1 °F 100% 29.79 in 7.0 mi ENE 9.2 mph - 0.01 in Rain Rain
1:55 AM 38.5 °F 32.1 °F 35.2 °F 88% 29.79 in 7.0 mi ESE 9.2 mph - 0.01 in Rain Light Rain
2:15 AM 39.9 °F 33.4 °F 35.1 °F 83% 29.77 in 10.0 mi East 10.4 mph - 0.01 in Rain Light Rain
2:35 AM 39.7 °F 31.9 °F 34.9 °F 83% 29.74 in 10.0 mi NE 13.8 mph 18.4 mph 0.01 in Rain Light Rain
2:55 AM 39.4 °F 33.2 °F 34.7 °F 83% 29.75 in 10.0 mi East 9.2 mph 19.6 mph 0.01 in   Unknown
3:15 AM 39.7 °F 34.9 °F 34.7 °F 82% 29.72 in 10.0 mi NE 6.9 mph - N/A Rain Light Rain
3:35 AM 41.4 °F 34.3 °F 34.2 °F 76% 29.72 in 10.0 mi ESE 12.7 mph 17.3 mph N/A   Mostly Cloudy
3:55 AM 42.1 °F - 33.4 °F 71% 29.73 in 10.0 mi Calm Calm - N/A   Overcast
4:15 AM 41.0 °F 35.2 °F 32.7 °F 72% 29.71 in 10.0 mi SE 9.2 mph - N/A   Overcast
4:35 AM 39.7 °F 34.3 °F 32.2 °F 74% 29.68 in 10.0 mi East 8.1 mph - N/A   Mostly Cloudy
4:55 AM 39.2 °F 34.2 °F 32.0 °F 75% 29.68 in 10.0 mi ESE 6.9 mph - N/A   Mostly Cloudy
5:15 AM 40.1 °F - 32.2 °F 73% 29.69 in 10.0 mi Calm Calm - N/A   Overcast
5:35 AM 39.2 °F - 33.6 °F 80% 29.70 in 10.0 mi Calm Calm - N/A Rain Light Rain
5:55 AM 37.6 °F 33.1 °F 35.2 °F 91% 29.72 in 7.0 mi NW 5.8 mph - 0.01 in Rain Rain
6:15 AM 36.5 °F 30.3 °F 36.5 °F 100% 29.73 in 4.0 mi WSW 8.1 mph - 0.01 in Snow Light Snow
6:35 AM 35.8 °F 31.9 °F 35.8 °F 100% 29.73 in 2.5 mi West 4.6 mph - 0.03 in Snow Light Snow
7:15 AM 36.0 °F 30.3 °F 36.0 °F 100% 29.72 in 4.0 mi West 6.9 mph - N/A Rain Light Rain
7:35 AM 37.0 °F 29.8 °F 37.0 °F 100% 29.72 in 5.0 mi West 10.4 mph - 0.01 in   Drizzle
7:55 AM 37.8 °F 30.7 °F 37.8 °F 100% 29.72 in 5.0 mi WSW 10.4 mph - 0.01 in   Drizzle
8:15 AM 38.3 °F 30.5 °F 38.3 °F 100% 29.71 in 7.0 mi WSW 12.7 mph - N/A   Drizzle
8:35 AM 38.7 °F 30.5 °F 38.7 °F 100% 29.70 in 4.0 mi WSW 13.8 mph 20.7 mph N/A   Light Drizzle
8:55 AM 38.5 °F 31.6 °F 38.5 °F 100% 29.71 in 4.0 mi WSW 10.4 mph 20.7 mph 0.01 in   Drizzle
9:15 AM 38.3 °F 30.5 °F 38.3 °F 100% 29.72 in 5.0 mi West 12.7 mph 21.9 mph N/A Rain Light Rain
9:35 AM 38.3 °F 30.1 °F 38.3 °F 100% 29.72 in 5.0 mi West 13.8 mph 20.7 mph N/A Rain Light Rain
9:55 AM 38.3 °F 28.4 °F 38.3 °F 100% 29.72 in 4.0 mi West 19.6 mph 23.0 mph N/A Rain Light Rain
10:15 AM 38.5 °F 28.9 °F 38.5 °F 100% 29.72 in 5.0 mi WSW 18.4 mph 25.3 mph N/A Rain Light Rain
10:35 AM 39.2 °F 30.2 °F 39.0 °F 99% 29.72 in 7.0 mi West 17.3 mph 26.5 mph 0.01 in Rain Light Rain
10:55 AM 38.8 °F 29.7 °F 38.7 °F 99% 29.73 in 7.0 mi West 17.3 mph - 0.01 in Rain Light Rain
11:15 AM 38.8 °F 29.1 °F 38.7 °F 99% 29.72 in 5.0 mi West 19.6 mph 25.3 mph N/A Rain Rain
11:35 AM 39.7 °F 29.7 °F 38.1 °F 94% 29.72 in 10.0 mi West 21.9 mph 28.8 mph N/A   Overcast
11:55 AM 41.0 °F 30.7 °F 37.2 °F 86% 29.70 in 10.0 mi West 25.3 mph 29.9 mph N/A   Overcast
12:15 PM 39.6 °F 29.0 °F 34.2 °F 81% 29.70 in 10.0 mi West 24.2 mph 32.2 mph N/A   Overcast
12:35 PM 39.9 °F 29.2 °F 33.6 °F 78% 29.70 in 7.0 mi West 25.3 mph 36.8 mph N/A   Overcast
12:55 PM 39.7 °F 28.3 °F 34.5 °F 82% 29.69 in 5.0 mi West 28.8 mph 36.8 mph N/A   Haze
1:15 PM 39.4 °F 27.9 °F 33.3 °F 79% 29.69 in 7.0 mi West 28.8 mph 36.8 mph N/A   Overcast
1:35 PM 38.5 °F 26.6 °F 32.5 °F 79% 29.70 in 4.0 mi WNW 28.8 mph 36.8 mph N/A   Haze
1:55 PM 36.7 °F 24.2 °F 32.0 °F 83% 29.70 in 2.5 mi West 28.8 mph 43.7 mph N/A   Haze
2:15 PM 36.9 °F 24.4 °F 32.0 °F 83% 29.70 in 7.0 mi West 28.8 mph 35.7 mph N/A   Overcast
2:35 PM 36.9 °F 24.0 °F 32.0 °F 83% 29.70 in 10.0 mi West 31.1 mph 39.1 mph N/A   Overcast
2:55 PM 36.5 °F 24.2 °F 30.9 °F 80% 29.71 in 10.0 mi West 27.6 mph 39.1 mph N/A   Overcast
3:15 PM 35.8 °F 23.0 °F 30.4 °F 81% 29.72 in 7.0 mi WNW 28.8 mph 43.7 mph N/A   Overcast
3:35 PM 35.2 °F 23.0 °F 30.6 °F 83% 29.74 in 5.0 mi West 25.3 mph 39.1 mph N/A   Haze
3:55 PM 35.1 °F 23.5 °F 29.7 °F 81% 29.75 in 10.0 mi West 21.9 mph 36.8 mph N/A   Overcast
4:15 PM 34.7 °F 22.0 °F 29.5 °F 81% 29.76 in 10.0 mi West 26.5 mph 39.1 mph N/A   Overcast
4:35 PM 34.7 °F 22.8 °F 28.9 °F 79% 29.78 in 10.0 mi WNW 23.0 mph 34.5 mph N/A   Overcast
4:55 PM 34.3 °F 22.9 °F 29.8 °F 84% 29.79 in 10.0 mi West 20.7 mph 33.4 mph N/A   Overcast
5:15 PM 33.8 °F 22.2 °F 29.7 °F 85% 29.80 in 10.0 mi West 20.7 mph 29.9 mph N/A   Overcast
5:35 PM 33.8 °F 22.2 °F 28.4 °F 81% 29.81 in 10.0 mi West 20.7 mph 31.1 mph N/A   Overcast
6:15 PM 32.9 °F 21.3 °F 27.7 °F 81% 29.84 in 10.0 mi WNW 19.6 mph 34.5 mph N/A   Overcast
6:35 PM 32.2 °F 20.0 °F 27.3 °F 82% 29.86 in 10.0 mi WNW 20.7 mph 32.2 mph N/A   Overcast
6:55 PM 32.0 °F 20.1 °F 25.7 °F 78% 29.87 in 10.0 mi WNW 19.6 mph 34.5 mph N/A   Overcast
7:15 PM 32.0 °F 20.1 °F 24.6 °F 74% 29.87 in 10.0 mi West 19.6 mph 35.7 mph N/A   Overcast
7:35 PM 32.0 °F 22.5 °F 24.8 °F 75% 29.88 in 7.0 mi West 12.7 mph 35.7 mph N/A Snow Light Snow
7:55 PM 31.5 °F 19.8 °F 23.9 °F 74% 29.89 in 7.0 mi West 18.4 mph 32.2 mph N/A Snow Light Snow
8:15 PM 31.1 °F 20.9 °F 23.9 °F 75% 29.91 in 5.0 mi West 13.8 mph 31.1 mph N/A Snow Light Snow
8:35 PM 31.1 °F 18.3 °F 23.4 °F 73% 29.91 in 7.0 mi West 21.9 mph 34.5 mph N/A Snow Light Snow
8:55 PM 30.7 °F 17.8 °F 23.7 °F 75% 29.92 in 5.0 mi West 21.9 mph 33.4 mph N/A Snow Light Snow
9:15 PM 30.4 °F 17.3 °F 24.1 °F 77% 29.93 in 5.0 mi West 21.9 mph 31.1 mph N/A Snow Light Snow
9:35 PM 30.2 °F 16.5 °F 23.7 °F 77% 29.93 in 7.0 mi West 24.2 mph 33.4 mph N/A Snow Light Snow
9:55 PM 30.2 °F 19.3 °F 23.7 °F 77% 29.94 in 10.0 mi West 15.0 mph 29.9 mph N/A Snow Light Snow
10:15 PM 30.2 °F 17.4 °F 23.0 °F 75% 29.96 in 10.0 mi West 20.7 mph 38.0 mph N/A Snow Light Snow
10:35 PM 30.6 °F 15.9 °F 22.1 °F 71% 29.96 in 10.0 mi WNW 28.8 mph 36.8 mph N/A Snow Light Snow
10:55 PM 30.2 °F 16.5 °F 21.7 °F 71% 29.96 in 10.0 mi West 24.2 mph 39.1 mph N/A   Overcast
11:15 PM 30.6 °F 17.3 °F 22.6 °F 72% 29.96 in 10.0 mi West 23.0 mph 36.8 mph N/A   Overcast
11:35 PM 30.4 °F 16.7 °F 23.2 °F 75% 29.97 in 7.0 mi West 24.2 mph 32.2 mph N/A Snow Light Snow
11:55 PM 30.7 °F 17.2 °F 22.8 °F 72% 29.97 in 10.0 mi West 24.2 mph 39.1 mph N/A Snow Light Snow